Regional Weather Roundup
Issued by NWS

Home | Current Version | Previous Version | Graphics & Text | Print | Product List | Glossary On
Versions: 1 2 3 4 5 6 7 8 9 10 11 12 13 14 15 16 17 18 19 20 21 22 23 24 25 26 27 28 29 30 31 32 33 34 35 36 37 38 39 40 41 42 43 44 45 46 47 48 49 50
000
ASUS43 KMKX 201411
RWRWI

WISCONSIN REGIONAL WEATHER ROUNDUP
NATIONAL WEATHER SERVICE MILWAUKEE/SULLIVAN WI
900 AM CDT FRI OCT 20 2017

NOTE: "FAIR" INDICATES FEW OR NO CLOUDS BELOW 12,000 FEET WITH NO
SIGNIFICANT WEATHER AND/OR OBSTRUCTIONS TO VISIBILITY.

WIZ001-002-006>008-014>016-023>028-201500-
NORTHWEST WISCONSIN

CITY           SKY/WX    TMP DP  RH WIND       PRES   REMARKS
SUPERIOR ARPT  SUNNY     49  46  89 CALM      29.85S
ASHLAND        SUNNY     58  46  64 S13       29.89F
HAYWARD        SUNNY     56  46  69 S8        29.92S
SIREN          SUNNY     60  49  66 S10       29.89S
CUMBERLAND     SUNNY     52  46  82 S5        29.94R
RICE LAKE      SUNNY     52  46  78 CALM      29.96R
CHETEK         SUNNY     51  47  83 SE5       29.95S
LADYSMITH      SUNNY     55  47  73 S8        29.98F
EAU CLAIRE     SUNNY     57  49  74 S10       29.97R
MENOMONIE      SUNNY     54  49  85 E6        29.96S
NEW RICHMOND   SUNNY     58  48  70 S9        29.92S
OSCEOLA        SUNNY     58  50  74 SE7       29.93S
$$

WIZ003>005-009-010-017-018-201500-
NORTH CENTRAL WISCONSIN

CITY           SKY/WX    TMP DP  RH WIND       PRES   REMARKS
MANITOWISH WTR SUNNY     51  45  78 S7        29.97S
ARBOR VITAE    SUNNY     55  47  72 S8        29.99S
WOODRUFF       SUNNY     55  47  72 S8        29.99S
RHINELANDER    SUNNY     57  47  69 SW10      30.01S
EAGLE RIVER    SUNNY     50  40  68 S3        30.00S
LAND O LAKES   SUNNY     54  44  69 SW5       30.00S
PHILLIPS       SUNNY     55  47  74 S9        29.97F
TOMAHAWK       SUNNY     50  44  78 CALM      30.01S
MEDFORD        SUNNY     51  45  79 S9        30.01S
MERRILL        SUNNY     49  44  81 CALM      30.03S
$$

WIZ029-030-035-036-043>047-201500-
CENTRAL WISCONSIN

CITY           SKY/WX    TMP DP  RH WIND       PRES   REMARKS
WAUSAU         SUNNY     54  45  71 CALM      30.03R
MOSINEE        SUNNY     54  48  82 S9        30.05R
MARSHFIELD     SUNNY     54  46  74 S8        30.02S
STEVENS POINT  SUNNY     54  46  76 S10       30.05S
WAUPACA        SUNNY     55  47  74 S6        30.08R
WAUTOMA        SUNNY     48  43  82 CALM      30.08
WISC RAPIDS    SUNNY     57  49  74 SW7       30.05S
CAMP DOUGLAS   SUNNY     57  52  82 S6        30.05R
$$

WIZ011>013-019>022-031-037>040-048>050-201500-
NORTHEAST WISCONSIN

CITY           SKY/WX    TMP DP  RH WIND       PRES   REMARKS
ANTIGO         SUNNY     51  44  77 S8        30.04S
SHAWANO        SUNNY     55  45  69 SW5       30.05S
OCONTO         SUNNY     56  46  68 SW5       30.05F
STURGEON BAY   SUNNY     57  45  64 S12       30.07S
GREEN BAY      SUNNY     58  50  75 S10       30.07S
MANITOWOC      SUNNY     56  45  66 S3        30.10S
APPLETON       SUNNY     57  45  62 S9        30.07R
CLINTONVILLE   SUNNY     55  46  71 SW8       30.06S
OSHKOSH        SUNNY     57  48  72 S8        30.08S
$$

WIZ032>034-041-042-053>061-201500-
SOUTHWEST WISCONSIN

CITY           SKY/WX    TMP DP  RH WIND       PRES   REMARKS
LA CROSSE      SUNNY     60  52  74 S6        30.02S
SPARTA         SUNNY     59  51  74 S7        30.05R
VIROQUA        SUNNY     57  52  82 S7        30.06R
BOSCOBEL       SUNNY     54  49  83 CALM      30.08R
PRAIRIE DU CHI SUNNY     59  49  70 CALM      30.07R
PLATTEVILLE    SUNNY     56  53  90 S8        30.12R
$$

WIZ056-057-062-063-064-067-068-201500-
SOUTH CENTRAL WISCONSIN

CITY           SKY/WX    TMP DP  RH WIND       PRES   REMARKS
REEDSBURG      SUNNY     58  50  76 S5        30.07R
BARABOO/DELLS  SUNNY     59  49  69 S8        30.07S
LONE ROCK      SUNNY     59  52  77 CALM      30.09R
MINERAL POINT  SUNNY     55  52  88 S7        30.10S
MADISON        MOSUNNY   57  49  74 S8        30.10S
MIDDLETON      SUNNY     59  50  71 S10       30.10S
WATERTOWN      SUNNY     58  51  77 S7        30.11S
MONROE         SUNNY     55  48  76 S12       30.13R
JANESVILLE     SUNNY     59  50  72 S7        30.13R
$$

WIZ051-052-058>065-066-070>072-201500-
SOUTHEAST WISCONSIN

CITY           SKY/WX    TMP DP  RH WIND       PRES   REMARKS
MILWAUKEE      MOSUNNY   60  48  64 SW10      30.15R
WAUKESHA       SUNNY     55  46  71 S5        30.15R
MILWAUKEE/TIMM SUNNY     55  45  67 CALM      30.14R
RACINE         SUNNY     60  49  66 SW10      30.16S
BURLINGTON     SUNNY     56  51  85 SW5       30.14S
KENOSHA        SUNNY     60  50  69 SW6       30.16R
FOND DU LAC    SUNNY     62  47  57 SW9       30.10R
SHEBOYGAN      SUNNY     55  49  80 S6        30.11R
WEST BEND      SUNNY     59  46  63 S8        30.12S
JUNEAU         SUNNY     57  48  72 S9        30.12S
$$

LSZ147-162-201500-
LAKE SUPERIOR

STATION/POSITION TIME  TEMP    WIND        PRES    WAVE
                       AIR SEA DIR/SP/G            HT/PER
                 (UTC) (F)     (DEG/KT/KT) (MB)    (FT/S)
W MID LAKE BUOY  1350   54 52              1011.8F   1/ 4
DEVILS ISLAND    1400   59     180/  7/ 10 1011.4F
PORT WING        1230          170/  2/  4 1011.5
SAXON HARBOR     1340   61     190/  9/ 14 1011.5F
$$

LMZ867-665-643>646-201500-
LAKE MICHIGAN

STATION/POSITION TIME  TEMP    WIND        PRES    WAVE
                       AIR SEA DIR/SP/G            HT/PER
                 (UTC) (F)     (DEG/KT/KT) (MB)    (FT/S)
S GREEN BAY BUOY 1400   58 58  200/ 12/ 14 1017.5
N MID LAKE BUOY  1350   60 58  190/ 16/ 19 1018.4F   4/ 6
NORTHPORT PIER   1340   58     160/  7/ 11 1017.6S
KEWAUNEE LAKESHO 1348   53     180/  8/  9 1017.7F
SHEBOYGAN LAKESH 1400   55     180/  9/ 10 1019.6R
PORT WASHINGTON  1330   56     180/  7/  8 1021.0S
MILWAUKEE LAKESH 1350   60     210/  6/  6   N/A
S MID LAKE BUOY  1350   62 61  180/ 14/ 16 1021.6R   2/ 4
KENOSHA   LAKESH 1400   62     220/  8/ 11 1021.0
$$

TC  - TEMPERATURE IN CELSIUS
VSB - VISIBILITY IN STATUTE MILES
WCI - WIND CHILL INDEX
HX  - HEAT INDEX





USA.gov is the U.S. government's official web portal to all federal, state and local government web resources and services.